owner,sensor,date,latitude,longitude,vertical_datum,wind_speed,wind_to_direction,wind_speed_of_gust,qcFlag 
DISL,ioos:station:DISL:CATA:1,2016-05-01T00:00:00Z,30.3085,-88.1395,0.0,5.6,132.0,99.0,'11111222,11111222,11144222' 
DISL,ioos:station:DISL:CATA:1,2016-05-01T00:30:00Z,30.3085,-88.1395,0.0,4.1,140.0,99.0,'11111222,11111222,11144222' 
DISL,ioos:station:DISL:CATA:1,2016-05-01T01:00:00Z,30.3085,-88.1395,0.0,5.4,264.0,99.0,'11111222,11111222,11144222' 
DISL,ioos:station:DISL:CATA:1,2016-05-01T01:30:00Z,30.3085,-88.1395,0.0,3.9,244.0,99.0,'11111222,11111222,11144222' 
DISL,ioos:station:DISL:CATA:1,2016-05-01T02:00:00Z,30.3085,-88.1395,0.0,4.5,184.0,99.0,'11111222,11111222,11144222' 
DISL,ioos:station:DISL:CATA:1,2016-05-01T02:30:00Z,30.3085,-88.1395,0.0,11.9,162.0,99.0,'11111222,11111222,11144222' 
DISL,ioos:station:DISL:CATA:1,2016-05-01T03:00:00Z,30.3085,-88.1395,0.0,11.2,148.0,99.0,'11111222,11111222,11144222' 
DISL,ioos:station:DISL:CATA:1,2016-05-01T03:30:00Z,30.3085,-88.1395,0.0,9.2,141.0,99.0,'11111222,11111222,11144222' 
DISL,ioos:station:DISL:CATA:1,2016-05-01T04:00:00Z,30.3085,-88.1395,0.0,5.9,149.0,99.0,'11111222,11111222,11144222' 
DISL,ioos:station:DISL:CATA:1,2016-05-01T04:30:00Z,30.3085,-88.1395,0.0,4.8,155.0,99.0,'11111222,11111222,11144222' 
DISL,ioos:station:DISL:CATA:1,2016-05-01T05:00:00Z,30.3085,-88.1395,0.0,5.8,158.0,99.0,'11111222,11111222,11144222' 
DISL,ioos:station:DISL:CATA:1,2016-05-01T05:30:00Z,30.3085,-88.1395,0.0,5.3,160.0,99.0,'11111222,11111222,11144222' 
DISL,ioos:station:DISL:CATA:1,2016-05-01T06:30:00Z,30.3085,-88.1395,0.0,4.7,155.0,99.0,'11111222,11111222,11144222' 
DISL,ioos:station:DISL:CATA:1,2016-05-01T07:00:00Z,30.3085,-88.1395,0.0,4.6,148.0,99.0,'11111222,11111222,11144222' 
DISL,ioos:station:DISL:CATA:1,2016-05-01T07:30:00Z,30.3085,-88.1395,0.0,6.1,163.0,99.0,'11111222,11111222,11144222' 
DISL,ioos:station:DISL:CATA:1,2016-05-01T08:00:00Z,30.3085,-88.1395,0.0,6.6,169.0,99.0,'11111222,11111222,11144222' 
DISL,ioos:station:DISL:CATA:1,2016-05-01T08:30:00Z,30.3085,-88.1395,0.0,6.1,172.0,99.0,'11111222,11111222,11144222' 
DISL,ioos:station:DISL:CATA:1,2016-05-01T09:00:00Z,30.3085,-88.1395,0.0,5.2,167.0,99.0,'11111222,11111222,11144222' 
DISL,ioos:station:DISL:CATA:1,2016-05-01T09:30:00Z,30.3085,-88.1395,0.0,5.3,162.0,99.0,'11111222,11111222,11144222' 
DISL,ioos:station:DISL:CATA:1,2016-05-01T10:00:00Z,30.3085,-88.1395,0.0,4.9,158.0,99.0,'11111222,11111222,11144222' 
DISL,ioos:station:DISL:CATA:1,2016-05-01T10:30:00Z,30.3085,-88.1395,0.0,4.0,153.0,99.0,'11111222,11111222,11144222' 
DISL,ioos:station:DISL:CATA:1,2016-05-01T11:00:00Z,30.3085,-88.1395,0.0,4.0,155.0,99.0,'11111222,11111222,11144222' 
DISL,ioos:station:DISL:CATA:1,2016-05-01T11:30:00Z,30.3085,-88.1395,0.0,4.3,151.0,99.0,'11111222,11111222,11144222' 
DISL,ioos:station:DISL:CATA:1,2016-05-01T12:00:00Z,30.3085,-88.1395,0.0,3.9,151.0,99.0,'11111222,11111222,11144222' 
DISL,ioos:station:DISL:CATA:1,2016-05-01T12:30:00Z,30.3085,-88.1395,0.0,4.6,147.0,99.0,'11111222,11111222,11144222' 
DISL,ioos:station:DISL:CATA:1,2016-05-01T13:00:00Z,30.3085,-88.1395,0.0,4.8,147.0,99.0,'11111222,11111222,11144222' 
DISL,ioos:station:DISL:CATA:1,2016-05-01T13:30:00Z,30.3085,-88.1395,0.0,4.2,136.0,99.0,'11111222,11111222,11144222' 
DISL,ioos:station:DISL:CATA:1,2016-05-01T14:00:00Z,30.3085,-88.1395,0.0,5.0,142.0,99.0,'11111222,11111222,11144222' 
DISL,ioos:station:DISL:CATA:1,2016-05-01T14:30:00Z,30.3085,-88.1395,0.0,5.6,152.0,99.0,'11111222,11111222,11144222' 
DISL,ioos:station:DISL:CATA:1,2016-05-01T15:00:00Z,30.3085,-88.1395,0.0,5.2,142.0,99.0,'11111222,11111222,11144222' 
DISL,ioos:station:DISL:CATA:1,2016-05-01T15:30:00Z,30.3085,-88.1395,0.0,5.7,151.0,99.0,'11111222,11111222,11144222' 
DISL,ioos:station:DISL:CATA:1,2016-05-01T16:00:00Z,30.3085,-88.1395,0.0,5.9,153.0,99.0,'11111222,11111222,11144222' 
DISL,ioos:station:DISL:CATA:1,2016-05-01T16:30:00Z,30.3085,-88.1395,0.0,6.3,158.0,99.0,'11111222,11111222,11144222' 
DISL,ioos:station:DISL:CATA:1,2016-05-01T17:00:00Z,30.3085,-88.1395,0.0,6.1,163.0,99.0,'11111222,11111222,11144222' 
DISL,ioos:station:DISL:CATA:1,2016-05-01T17:30:00Z,30.3085,-88.1395,0.0,6.2,163.0,99.0,'11111222,11111222,11144222' 
DISL,ioos:station:DISL:CATA:1,2016-05-01T18:00:00Z,30.3085,-88.1395,0.0,5.0,156.0,99.0,'11111222,11111222,11144222' 
DISL,ioos:station:DISL:CATA:1,2016-05-01T18:30:00Z,30.3085,-88.1395,0.0,4.3,160.0,99.0,'11111222,11111222,11144222' 
DISL,ioos:station:DISL:CATA:1,2016-05-01T19:00:00Z,30.3085,-88.1395,0.0,3.4,165.0,99.0,'11111222,11111222,11144222' 
DISL,ioos:station:DISL:CATA:1,2016-05-01T19:30:00Z,30.3085,-88.1395,0.0,2.9,174.0,99.0,'11111222,11111222,11144222' 
DISL,ioos:station:DISL:CATA:1,2016-05-01T20:00:00Z,30.3085,-88.1395,0.0,1.5,183.0,99.0,'11111222,11111222,11144222' 
DISL,ioos:station:DISL:CATA:1,2016-05-01T20:30:00Z,30.3085,-88.1395,0.0,0.6,188.0,99.0,'11111222,11111222,11144222' 
DISL,ioos:station:DISL:CATA:1,2016-05-01T21:00:00Z,30.3085,-88.1395,0.0,0.1,129.0,99.0,'11111222,11111222,11144222' 
DISL,ioos:station:DISL:CATA:1,2016-05-01T21:30:00Z,30.3085,-88.1395,0.0,1.4,73.0,99.0,'11111222,11111222,11144222' 
DISL,ioos:station:DISL:CATA:1,2016-05-01T22:00:00Z,30.3085,-88.1395,0.0,0.8,59.0,99.0,'11111222,11111222,11144222' 
DISL,ioos:station:DISL:CATA:1,2016-05-01T22:30:00Z,30.3085,-88.1395,0.0,0.8,109.0,99.0,'11111222,11111222,11144222' 
DISL,ioos:station:DISL:CATA:1,2016-05-01T23:00:00Z,30.3085,-88.1395,0.0,3.1,144.0,99.0,'11111222,11111222,11144222' 
DISL,ioos:station:DISL:CATA:1,2016-05-01T23:30:00Z,30.3085,-88.1395,0.0,6.6,154.0,99.0,'11111222,11111222,11144222' 
DISL,ioos:station:DISL:CATA:1,2016-05-02T00:00:00Z,30.3085,-88.1395,0.0,7.9,141.0,99.0,'11111222,11111222,11144222' 
DISL,ioos:station:DISL:CATA:1,2016-05-02T00:30:00Z,30.3085,-88.1395,0.0,7.3,158.0,99.0,'11111222,11111222,11144222' 
DISL,ioos:station:DISL:CATA:1,2016-05-02T01:00:00Z,30.3085,-88.1395,0.0,8.1,158.0,99.0,'11111222,11111222,11144222' 
DISL,ioos:station:DISL:CATA:1,2016-05-02T01:30:00Z,30.3085,-88.1395,0.0,7.1,168.0,99.0,'11111222,11111222,11144222' 
DISL,ioos:station:DISL:CATA:1,2016-05-02T02:00:00Z,30.3085,-88.1395,0.0,7.9,165.0,99.0,'11111222,11111222,11144222' 
DISL,ioos:station:DISL:CATA:1,2016-05-02T02:30:00Z,30.3085,-88.1395,0.0,9.6,175.0,99.0,'11111222,11111222,11144222' 
DISL,ioos:station:DISL:CATA:1,2016-05-02T03:00:00Z,30.3085,-88.1395,0.0,14.0,161.0,99.0,'11111222,11111222,11144222' 
DISL,ioos:station:DISL:CATA:1,2016-05-02T03:30:00Z,30.3085,-88.1395,0.0,13.8,163.0,99.0,'11111222,11111222,11144222' 
DISL,ioos:station:DISL:CATA:1,2016-05-02T04:00:00Z,30.3085,-88.1395,0.0,10.5,150.0,99.0,'11111222,11111222,11144222' 
DISL,ioos:station:DISL:CATA:1,2016-05-02T04:30:00Z,30.3085,-88.1395,0.0,6.4,147.0,99.0,'11111222,11111222,11144222' 
DISL,ioos:station:DISL:CATA:1,2016-05-02T05:00:00Z,30.3085,-88.1395,0.0,7.4,152.0,99.0,'11111222,11111222,11144222' 
DISL,ioos:station:DISL:CATA:1,2016-05-02T06:30:00Z,30.3085,-88.1395,0.0,1.0,183.0,99.0,'11111222,11111222,11144222' 
DISL,ioos:station:DISL:CATA:1,2016-05-02T07:00:00Z,30.3085,-88.1395,0.0,1.7,155.0,99.0,'11111222,11111222,11144222' 
DISL,ioos:station:DISL:CATA:1,2016-05-02T07:30:00Z,30.3085,-88.1395,0.0,1.9,110.0,99.0,'11111222,11111222,11144222' 
DISL,ioos:station:DISL:CATA:1,2016-05-02T08:00:00Z,30.3085,-88.1395,0.0,2.5,136.0,99.0,'11111222,11111222,11144222' 
DISL,ioos:station:DISL:CATA:1,2016-05-02T08:30:00Z,30.3085,-88.1395,0.0,3.5,143.0,99.0,'11111222,11111222,11144222' 
DISL,ioos:station:DISL:CATA:1,2016-05-02T09:00:00Z,30.3085,-88.1395,0.0,5.0,134.0,99.0,'11111222,11111222,11144222' 
DISL,ioos:station:DISL:CATA:1,2016-05-02T09:30:00Z,30.3085,-88.1395,0.0,5.2,140.0,99.0,'11111222,11111222,11144222' 
DISL,ioos:station:DISL:CATA:1,2016-05-02T10:00:00Z,30.3085,-88.1395,0.0,4.5,144.0,99.0,'11111222,11111222,11144222' 
DISL,ioos:station:DISL:CATA:1,2016-05-02T10:30:00Z,30.3085,-88.1395,0.0,3.4,142.0,99.0,'11111222,11111222,11144222' 
DISL,ioos:station:DISL:CATA:1,2016-05-02T11:00:00Z,30.3085,-88.1395,0.0,3.8,145.0,99.0,'11111222,11111222,11144222' 
DISL,ioos:station:DISL:CATA:1,2016-05-02T11:30:00Z,30.3085,-88.1395,0.0,3.6,149.0,99.0,'11111222,11111222,11144222' 
DISL,ioos:station:DISL:CATA:1,2016-05-02T12:00:00Z,30.3085,-88.1395,0.0,4.3,139.0,99.0,'11111222,11111222,11144222' 
DISL,ioos:station:DISL:CATA:1,2016-05-02T12:30:00Z,30.3085,-88.1395,0.0,4.7,139.0,99.0,'11111222,11111222,11144222' 
DISL,ioos:station:DISL:CATA:1,2016-05-02T13:00:00Z,30.3085,-88.1395,0.0,4.9,136.0,99.0,'11111222,11111222,11144222' 
DISL,ioos:station:DISL:CATA:1,2016-05-02T13:30:00Z,30.3085,-88.1395,0.0,5.2,139.0,99.0,'11111222,11111222,11144222' 
DISL,ioos:station:DISL:CATA:1,2016-05-02T14:00:00Z,30.3085,-88.1395,0.0,5.1,141.0,99.0,'11111222,11111222,11144222' 
DISL,ioos:station:DISL:CATA:1,2016-05-02T14:30:00Z,30.3085,-88.1395,0.0,4.6,141.0,99.0,'11111222,11111222,11144222' 
DISL,ioos:station:DISL:CATA:1,2016-05-02T15:00:00Z,30.3085,-88.1395,0.0,4.0,136.0,99.0,'11111222,11111222,11144222' 
DISL,ioos:station:DISL:CATA:1,2016-05-02T15:30:00Z,30.3085,-88.1395,0.0,3.9,139.0,99.0,'11111222,11111222,11144222' 
DISL,ioos:station:DISL:CATA:1,2016-05-02T16:00:00Z,30.3085,-88.1395,0.0,4.2,148.0,99.0,'11111222,11111222,11144222' 
DISL,ioos:station:DISL:CATA:1,2016-05-02T16:30:00Z,30.3085,-88.1395,0.0,4.3,146.0,99.0,'11111222,11111222,11144222' 
DISL,ioos:station:DISL:CATA:1,2016-05-02T17:00:00Z,30.3085,-88.1395,0.0,4.7,170.0,99.0,'11111222,11111222,11144222' 
DISL,ioos:station:DISL:CATA:1,2016-05-02T17:30:00Z,30.3085,-88.1395,0.0,5.0,176.0,99.0,'11111222,11111222,11144222' 
DISL,ioos:station:DISL:CATA:1,2016-05-02T18:00:00Z,30.3085,-88.1395,0.0,5.3,180.0,99.0,'11111222,11111222,11144222' 
DISL,ioos:station:DISL:CATA:1,2016-05-02T18:30:00Z,30.3085,-88.1395,0.0,5.1,178.0,99.0,'11111222,11111222,11144222' 
DISL,ioos:station:DISL:CATA:1,2016-05-02T19:00:00Z,30.3085,-88.1395,0.0,6.0,180.0,99.0,'11111222,11111222,11144222' 
DISL,ioos:station:DISL:CATA:1,2016-05-02T19:30:00Z,30.3085,-88.1395,0.0,6.7,182.0,99.0,'11111222,11111222,11144222' 
DISL,ioos:station:DISL:CATA:1,2016-05-02T20:00:00Z,30.3085,-88.1395,0.0,6.7,176.0,99.0,'11111222,11111222,11144222' 
DISL,ioos:station:DISL:CATA:1,2016-05-02T20:30:00Z,30.3085,-88.1395,0.0,6.4,185.0,99.0,'11111222,11111222,11144222' 
DISL,ioos:station:DISL:CATA:1,2016-05-02T21:00:00Z,30.3085,-88.1395,0.0,5.8,190.0,99.0,'11111222,11111222,11144222' 
DISL,ioos:station:DISL:CATA:1,2016-05-02T21:30:00Z,30.3085,-88.1395,0.0,6.2,190.0,99.0,'11111222,11111222,11144222' 
DISL,ioos:station:DISL:CATA:1,2016-05-02T22:00:00Z,30.3085,-88.1395,0.0,6.6,199.0,99.0,'11111222,11111222,11144222' 
DISL,ioos:station:DISL:CATA:1,2016-05-02T22:30:00Z,30.3085,-88.1395,0.0,7.4,197.0,99.0,'11111222,11111222,11144222' 
DISL,ioos:station:DISL:CATA:1,2016-05-02T23:00:00Z,30.3085,-88.1395,0.0,7.0,203.0,99.0,'11111222,11111222,11144222' 
DISL,ioos:station:DISL:CATA:1,2016-05-02T23:30:00Z,30.3085,-88.1395,0.0,7.0,200.0,99.0,'11111222,11111222,11144222' 
DISL,ioos:station:DISL:CATA:1,2016-05-03T00:00:00Z,30.3085,-88.1395,0.0,5.2,201.0,99.0,'11111222,11111222,11144222' 
DISL,ioos:station:DISL:CATA:1,2016-05-03T00:30:00Z,30.3085,-88.1395,0.0,3.6,192.0,99.0,'11111222,11111222,11144222' 
DISL,ioos:station:DISL:CATA:1,2016-05-03T01:00:00Z,30.3085,-88.1395,0.0,2.4,151.0,99.0,'11111222,11111222,11144222' 
DISL,ioos:station:DISL:CATA:1,2016-05-03T01:30:00Z,30.3085,-88.1395,0.0,7.1,57.0,99.0,'11111222,11111222,11144222' 
DISL,ioos:station:DISL:CATA:1,2016-05-03T02:00:00Z,30.3085,-88.1395,0.0,4.8,60.0,99.0,'11111222,11111222,11144222' 
DISL,ioos:station:DISL:CATA:1,2016-05-03T02:30:00Z,30.3085,-88.1395,0.0,2.8,101.0,99.0,'11111222,11111222,11144222' 
DISL,ioos:station:DISL:CATA:1,2016-05-03T03:00:00Z,30.3085,-88.1395,0.0,2.8,134.0,99.0,'11111222,11111222,11144222' 
DISL,ioos:station:DISL:CATA:1,2016-05-03T03:30:00Z,30.3085,-88.1395,0.0,2.8,148.0,99.0,'11111222,11111222,11144222' 
DISL,ioos:station:DISL:CATA:1,2016-05-03T04:00:00Z,30.3085,-88.1395,0.0,2.4,150.0,99.0,'11111222,11111222,11144222' 
DISL,ioos:station:DISL:CATA:1,2016-05-03T04:30:00Z,30.3085,-88.1395,0.0,1.7,146.0,99.0,'11111222,11111222,11144222' 
DISL,ioos:station:DISL:CATA:1,2016-05-03T05:00:00Z,30.3085,-88.1395,0.0,2.3,178.0,99.0,'11111222,11111222,11144222' 
DISL,ioos:station:DISL:CATA:1,2016-05-03T05:30:00Z,30.3085,-88.1395,0.0,3.7,217.0,99.0,'11111222,11111222,11144222' 
DISL,ioos:station:DISL:CATA:1,2016-05-03T06:30:00Z,30.3085,-88.1395,0.0,5.1,239.0,99.0,'11111222,11111222,11144222' 
DISL,ioos:station:DISL:CATA:1,2016-05-03T07:00:00Z,30.3085,-88.1395,0.0,5.5,248.0,99.0,'11111222,11111222,11144222' 
DISL,ioos:station:DISL:CATA:1,2016-05-03T07:30:00Z,30.3085,-88.1395,0.0,5.8,252.0,99.0,'11111222,11111222,11144222' 
DISL,ioos:station:DISL:CATA:1,2016-05-03T08:00:00Z,30.3085,-88.1395,0.0,5.5,257.0,99.0,'11111222,11111222,11144222' 
DISL,ioos:station:DISL:CATA:1,2016-05-03T08:30:00Z,30.3085,-88.1395,0.0,5.9,255.0,99.0,'11111222,11111222,11144222' 
DISL,ioos:station:DISL:CATA:1,2016-05-03T09:00:00Z,30.3085,-88.1395,0.0,5.5,255.0,99.0,'11111222,11111222,11144222' 
DISL,ioos:station:DISL:CATA:1,2016-05-03T09:30:00Z,30.3085,-88.1395,0.0,4.9,263.0,99.0,'11111222,11111222,11144222' 
DISL,ioos:station:DISL:CATA:1,2016-05-03T10:00:00Z,30.3085,-88.1395,0.0,4.1,296.0,99.0,'11111222,11111222,11144222' 
DISL,ioos:station:DISL:CATA:1,2016-05-03T10:30:00Z,30.3085,-88.1395,0.0,3.5,344.0,99.0,'11111222,11111222,11144222' 
DISL,ioos:station:DISL:CATA:1,2016-05-03T11:00:00Z,30.3085,-88.1395,0.0,2.5,349.0,99.0,'11111222,11111222,11144222' 
DISL,ioos:station:DISL:CATA:1,2016-05-03T11:30:00Z,30.3085,-88.1395,0.0,3.1,331.0,99.0,'11111222,11111222,11144222' 
DISL,ioos:station:DISL:CATA:1,2016-05-03T12:00:00Z,30.3085,-88.1395,0.0,2.4,340.0,99.0,'11111222,11111222,11144222' 
DISL,ioos:station:DISL:CATA:1,2016-05-03T12:30:00Z,30.3085,-88.1395,0.0,4.1,357.0,99.0,'11111222,11111222,11144222' 
DISL,ioos:station:DISL:CATA:1,2016-05-03T13:00:00Z,30.3085,-88.1395,0.0,3.8,11.0,99.0,'11111222,11111222,11144222' 
DISL,ioos:station:DISL:CATA:1,2016-05-03T13:30:00Z,30.3085,-88.1395,0.0,3.0,352.0,99.0,'11111222,11111222,11144222' 
DISL,ioos:station:DISL:CATA:1,2016-05-03T14:00:00Z,30.3085,-88.1395,0.0,4.6,24.0,99.0,'11111222,11111222,11144222' 
DISL,ioos:station:DISL:CATA:1,2016-05-03T14:30:00Z,30.3085,-88.1395,0.0,4.7,41.0,99.0,'11111222,11111222,11144222' 
DISL,ioos:station:DISL:CATA:1,2016-05-03T15:00:00Z,30.3085,-88.1395,0.0,6.9,41.0,99.0,'11111222,11111222,11144222' 
DISL,ioos:station:DISL:CATA:1,2016-05-03T15:30:00Z,30.3085,-88.1395,0.0,4.7,30.0,99.0,'11111222,11111222,11144222' 
DISL,ioos:station:DISL:CATA:1,2016-05-03T16:00:00Z,30.3085,-88.1395,0.0,4.0,41.0,99.0,'11111222,11111222,11144222' 
DISL,ioos:station:DISL:CATA:1,2016-05-03T16:30:00Z,30.3085,-88.1395,0.0,4.1,47.0,99.0,'11111222,11111222,11144222' 
DISL,ioos:station:DISL:CATA:1,2016-05-03T17:00:00Z,30.3085,-88.1395,0.0,3.6,55.0,99.0,'11111222,11111222,11144222' 
DISL,ioos:station:DISL:CATA:1,2016-05-03T17:30:00Z,30.3085,-88.1395,0.0,4.0,51.0,99.0,'11111222,11111222,11144222' 
DISL,ioos:station:DISL:CATA:1,2016-05-03T18:00:00Z,30.3085,-88.1395,0.0,3.6,76.0,99.0,'11111222,11111222,11144222' 
DISL,ioos:station:DISL:CATA:1,2016-05-03T18:30:00Z,30.3085,-88.1395,0.0,3.2,82.0,99.0,'11111222,11111222,11144222' 
DISL,ioos:station:DISL:CATA:1,2016-05-03T19:00:00Z,30.3085,-88.1395,0.0,1.8,105.0,99.0,'11111222,11111222,11144222' 
DISL,ioos:station:DISL:CATA:1,2016-05-03T19:30:00Z,30.3085,-88.1395,0.0,1.2,89.0,99.0,'11111222,11111222,11144222' 
DISL,ioos:station:DISL:CATA:1,2016-05-03T20:00:00Z,30.3085,-88.1395,0.0,1.5,80.0,99.0,'11111222,11111222,11144222' 
DISL,ioos:station:DISL:CATA:1,2016-05-03T20:30:00Z,30.3085,-88.1395,0.0,1.0,147.0,99.0,'11111222,11111222,11144222' 
DISL,ioos:station:DISL:CATA:1,2016-05-03T21:00:00Z,30.3085,-88.1395,0.0,1.3,204.0,99.0,'11111222,11111222,11144222' 
DISL,ioos:station:DISL:CATA:1,2016-05-03T21:30:00Z,30.3085,-88.1395,0.0,1.7,203.0,99.0,'11111222,11111222,11144222' 
DISL,ioos:station:DISL:CATA:1,2016-05-03T22:00:00Z,30.3085,-88.1395,0.0,3.3,237.0,99.0,'11111222,11111222,11144222' 
DISL,ioos:station:DISL:CATA:1,2016-05-03T22:30:00Z,30.3085,-88.1395,0.0,5.5,301.0,99.0,'11111222,11111222,11144222' 
DISL,ioos:station:DISL:CATA:1,2016-05-03T23:00:00Z,30.3085,-88.1395,0.0,5.4,339.0,99.0,'11111222,11111222,11144222' 
DISL,ioos:station:DISL:CATA:1,2016-05-03T23:30:00Z,30.3085,-88.1395,0.0,4.2,318.0,99.0,'11111222,11111222,11144222' 
DISL,ioos:station:DISL:CATA:1,2016-05-04T00:00:00Z,30.3085,-88.1395,0.0,3.4,342.0,99.0,'11111222,11111222,11144222' 
DISL,ioos:station:DISL:CATA:1,2016-05-04T00:30:00Z,30.3085,-88.1395,0.0,4.1,354.0,99.0,'11111222,11111222,11144222' 
DISL,ioos:station:DISL:CATA:1,2016-05-04T01:00:00Z,30.3085,-88.1395,0.0,3.8,358.0,99.0,'11111222,11111222,11144222' 
DISL,ioos:station:DISL:CATA:1,2016-05-04T01:30:00Z,30.3085,-88.1395,0.0,4.2,353.0,99.0,'11111222,11111222,11144222' 
DISL,ioos:station:DISL:CATA:1,2016-05-04T02:00:00Z,30.3085,-88.1395,0.0,3.4,354.0,99.0,'11111222,11111222,11144222' 
DISL,ioos:station:DISL:CATA:1,2016-05-04T02:30:00Z,30.3085,-88.1395,0.0,2.6,346.0,99.0,'11111222,11111222,11144222' 
DISL,ioos:station:DISL:CATA:1,2016-05-04T03:00:00Z,30.3085,-88.1395,0.0,3.8,329.0,99.0,'11111222,11111222,11144222' 
DISL,ioos:station:DISL:CATA:1,2016-05-04T03:30:00Z,30.3085,-88.1395,0.0,4.1,346.0,99.0,'11111222,11111222,11144222' 
DISL,ioos:station:DISL:CATA:1,2016-05-04T04:00:00Z,30.3085,-88.1395,0.0,3.7,328.0,99.0,'11111222,11111222,11144222' 
DISL,ioos:station:DISL:CATA:1,2016-05-04T04:30:00Z,30.3085,-88.1395,0.0,3.9,337.0,99.0,'11111222,11111222,11144222' 
DISL,ioos:station:DISL:CATA:1,2016-05-04T05:00:00Z,30.3085,-88.1395,0.0,3.0,1.0,99.0,'11111222,11111222,11144222' 
DISL,ioos:station:DISL:CATA:1,2016-05-04T05:30:00Z,30.3085,-88.1395,0.0,3.0,326.0,99.0,'11111222,11111222,11144222' 
DISL,ioos:station:DISL:CATA:1,2016-05-04T06:30:00Z,30.3085,-88.1395,0.0,5.6,351.0,99.0,'11111222,11111222,11144222' 
DISL,ioos:station:DISL:CATA:1,2016-05-04T07:00:00Z,30.3085,-88.1395,0.0,5.1,355.0,99.0,'11111222,11111222,11144222' 
DISL,ioos:station:DISL:CATA:1,2016-05-04T07:30:00Z,30.3085,-88.1395,0.0,6.4,1.0,99.0,'11111222,11111222,11144222' 
DISL,ioos:station:DISL:CATA:1,2016-05-04T08:00:00Z,30.3085,-88.1395,0.0,5.6,5.0,99.0,'11111222,11111222,11144222' 
DISL,ioos:station:DISL:CATA:1,2016-05-04T08:30:00Z,30.3085,-88.1395,0.0,6.3,3.0,99.0,'11111222,11111222,11144222' 
DISL,ioos:station:DISL:CATA:1,2016-05-04T09:00:00Z,30.3085,-88.1395,0.0,6.4,1.0,99.0,'11111222,11111222,11144222' 
DISL,ioos:station:DISL:CATA:1,2016-05-04T09:30:00Z,30.3085,-88.1395,0.0,6.7,4.0,99.0,'11111222,11111222,11144222' 
DISL,ioos:station:DISL:CATA:1,2016-05-04T10:00:00Z,30.3085,-88.1395,0.0,6.8,5.0,99.0,'11111222,11111222,11144222' 
DISL,ioos:station:DISL:CATA:1,2016-05-04T10:30:00Z,30.3085,-88.1395,0.0,5.3,1.0,99.0,'11111222,11111222,11144222' 
DISL,ioos:station:DISL:CATA:1,2016-05-04T11:00:00Z,30.3085,-88.1395,0.0,5.9,359.0,99.0,'11111222,11111222,11144222' 
DISL,ioos:station:DISL:CATA:1,2016-05-04T11:30:00Z,30.3085,-88.1395,0.0,5.6,1.0,99.0,'11111222,11111222,11144222' 
DISL,ioos:station:DISL:CATA:1,2016-05-04T12:00:00Z,30.3085,-88.1395,0.0,5.9,359.0,99.0,'11111222,11111222,11144222' 
DISL,ioos:station:DISL:CATA:1,2016-05-04T12:30:00Z,30.3085,-88.1395,0.0,5.1,359.0,99.0,'11111222,11111222,11144222' 
DISL,ioos:station:DISL:CATA:1,2016-05-04T13:00:00Z,30.3085,-88.1395,0.0,6.0,5.0,99.0,'11111222,11111222,11144222' 
DISL,ioos:station:DISL:CATA:1,2016-05-04T13:30:00Z,30.3085,-88.1395,0.0,4.9,4.0,99.0,'11111222,11111222,11144222' 
DISL,ioos:station:DISL:CATA:1,2016-05-04T14:00:00Z,30.3085,-88.1395,0.0,5.2,359.0,99.0,'11111222,11111222,11144222' 
DISL,ioos:station:DISL:CATA:1,2016-05-04T14:30:00Z,30.3085,-88.1395,0.0,5.8,354.0,99.0,'11111222,11111222,11144222' 
DISL,ioos:station:DISL:CATA:1,2016-05-04T15:00:00Z,30.3085,-88.1395,0.0,5.8,23.0,99.0,'11111222,11111222,11144222' 
DISL,ioos:station:DISL:CATA:1,2016-05-04T15:30:00Z,30.3085,-88.1395,0.0,6.3,7.0,99.0,'11111222,11111222,11144222' 
DISL,ioos:station:DISL:CATA:1,2016-05-04T16:00:00Z,30.3085,-88.1395,0.0,6.0,7.0,99.0,'11111222,11111222,11144222' 
DISL,ioos:station:DISL:CATA:1,2016-05-04T16:30:00Z,30.3085,-88.1395,0.0,6.8,349.0,99.0,'11111222,11111222,11144222' 
DISL,ioos:station:DISL:CATA:1,2016-05-04T17:00:00Z,30.3085,-88.1395,0.0,7.6,346.0,99.0,'11111222,11111222,11144222' 
DISL,ioos:station:DISL:CATA:1,2016-05-04T17:30:00Z,30.3085,-88.1395,0.0,5.6,8.0,99.0,'11111222,11111222,11144222' 
DISL,ioos:station:DISL:CATA:1,2016-05-04T18:00:00Z,30.3085,-88.1395,0.0,6.5,353.0,99.0,'11111222,11111222,11144222' 
DISL,ioos:station:DISL:CATA:1,2016-05-04T18:30:00Z,30.3085,-88.1395,0.0,6.9,344.0,99.0,'11111222,11111222,11144222' 
DISL,ioos:station:DISL:CATA:1,2016-05-04T19:00:00Z,30.3085,-88.1395,0.0,8.8,345.0,99.0,'11111222,11111222,11144222' 
DISL,ioos:station:DISL:CATA:1,2016-05-04T19:30:00Z,30.3085,-88.1395,0.0,6.0,352.0,99.0,'11111222,11111222,11144222' 
DISL,ioos:station:DISL:CATA:1,2016-05-04T20:00:00Z,30.3085,-88.1395,0.0,6.1,335.0,99.0,'11111222,11111222,11144222' 
DISL,ioos:station:DISL:CATA:1,2016-05-04T20:30:00Z,30.3085,-88.1395,0.0,7.6,331.0,99.0,'11111222,11111222,11144222' 
DISL,ioos:station:DISL:CATA:1,2016-05-04T21:00:00Z,30.3085,-88.1395,0.0,6.1,334.0,99.0,'11111222,11111222,11144222' 
DISL,ioos:station:DISL:CATA:1,2016-05-04T21:30:00Z,30.3085,-88.1395,0.0,6.7,345.0,99.0,'11111222,11111222,11144222' 
DISL,ioos:station:DISL:CATA:1,2016-05-04T22:00:00Z,30.3085,-88.1395,0.0,6.3,329.0,99.0,'11111222,11111222,11144222' 
DISL,ioos:station:DISL:CATA:1,2016-05-04T22:30:00Z,30.3085,-88.1395,0.0,7.1,331.0,99.0,'11111222,11111222,11144222' 
DISL,ioos:station:DISL:CATA:1,2016-05-04T23:00:00Z,30.3085,-88.1395,0.0,6.4,325.0,99.0,'11111222,11111222,11144222' 
DISL,ioos:station:DISL:CATA:1,2016-05-04T23:30:00Z,30.3085,-88.1395,0.0,6.5,330.0,99.0,'11111222,11111222,11144222' 
DISL,ioos:station:DISL:CATA:1,2016-05-05T00:00:00Z,30.3085,-88.1395,0.0,5.3,329.0,99.0,'11111222,11111222,11144222' 
DISL,ioos:station:DISL:CATA:1,2016-05-05T00:30:00Z,30.3085,-88.1395,0.0,4.3,323.0,99.0,'11111222,11111222,11144222' 
DISL,ioos:station:DISL:CATA:1,2016-05-05T01:00:00Z,30.3085,-88.1395,0.0,4.8,323.0,99.0,'11111222,11111222,11144222' 
DISL,ioos:station:DISL:CATA:1,2016-05-05T01:30:00Z,30.3085,-88.1395,0.0,4.3,324.0,99.0,'11111222,11111222,11144222' 
DISL,ioos:station:DISL:CATA:1,2016-05-05T02:00:00Z,30.3085,-88.1395,0.0,3.7,323.0,99.0,'11111222,11111222,11144222' 
DISL,ioos:station:DISL:CATA:1,2016-05-05T02:30:00Z,30.3085,-88.1395,0.0,3.9,311.0,99.0,'11111222,11111222,11144222' 
DISL,ioos:station:DISL:CATA:1,2016-05-05T03:00:00Z,30.3085,-88.1395,0.0,4.5,297.0,99.0,'11111222,11111222,11144222' 
DISL,ioos:station:DISL:CATA:1,2016-05-05T03:30:00Z,30.3085,-88.1395,0.0,5.7,291.0,99.0,'11111222,11111222,11144222' 
DISL,ioos:station:DISL:CATA:1,2016-05-05T04:00:00Z,30.3085,-88.1395,0.0,6.6,295.0,99.0,'11111222,11111222,11144222' 
DISL,ioos:station:DISL:CATA:1,2016-05-05T04:30:00Z,30.3085,-88.1395,0.0,7.3,291.0,99.0,'11111222,11111222,11144222' 
DISL,ioos:station:DISL:CATA:1,2016-05-05T05:00:00Z,30.3085,-88.1395,0.0,7.2,296.0,99.0,'11111222,11111222,11144222' 
DISL,ioos:station:DISL:CATA:1,2016-05-05T05:30:00Z,30.3085,-88.1395,0.0,7.6,294.0,99.0,'11111222,11111222,11144222' 
DISL,ioos:station:DISL:CATA:1,2016-05-05T06:30:00Z,30.3085,-88.1395,0.0,9.3,282.0,99.0,'11111222,11111222,11144222' 
DISL,ioos:station:DISL:CATA:1,2016-05-05T07:00:00Z,30.3085,-88.1395,0.0,9.0,285.0,99.0,'11111222,11111222,11144222' 
DISL,ioos:station:DISL:CATA:1,2016-05-05T07:30:00Z,30.3085,-88.1395,0.0,9.2,287.0,99.0,'11111222,11111222,11144222' 
DISL,ioos:station:DISL:CATA:1,2016-05-05T08:00:00Z,30.3085,-88.1395,0.0,9.8,291.0,99.0,'11111222,11111222,11144222' 
DISL,ioos:station:DISL:CATA:1,2016-05-05T08:30:00Z,30.3085,-88.1395,0.0,9.3,304.0,99.0,'11111222,11111222,11144222' 